To NAV CANADA Home Page Login to a new session Search on AWWS site Feedback and Comments Disclaimer Vers la page française équivalente Tips FAQ What's new on the site To the Forecasts and Observations / NOTAM section To "File a Flight Plan" website Publications and other links Update of the User's profile FIC Telephone Numbers My Weather Data Folder Route Weather Data Regional Weather Data Local Weather Data To the Forecasts and Observations / NOTAM section
Request Generated 02/14/2016 at 07:52:53 UTC . Weather information available at that time is displayed.

METAR/TAF

SARNIA/SARNIA (CHRIS HADFIELD)/ON    (show WxCam)

METAR CYZR 140700Z AUTO 27006KT 9SM CLR M15/M19 A3044 RMK SLP325=
METAR CYZR 140600Z AUTO 26008KT 9SM CLR M15/M19 A3044 RMK SLP326=
METAR CYZR 140500Z AUTO 26007KT 9SM CLR M16/M20 A3045 RMK SLP330=

*** REMARK        : Forecast period has ended; this was the last TAF issued
*** REMARQUE : La période de prévision est échue; ceci était le dernier TAF qui a été émis
TAF CYZR 131938Z 1320/1403 32012G22KT P6SM FEW030
BECMG 1322/1324 32008KT
RMK FCST BASED ON AUTO OBS. NXT FCST WILL BE ISSUED AT 141245Z=
Your time UTC time
Weather data provided by Environment Canada and NAV CANADA